�������l�o���
Date,Time,MP-1(��Sv/h),MP-2(��Sv/h),MP-3(��Sv/h),MP-4(��Sv/h),MP-5(��Sv/h),MP-6(��Sv/h),MP-7(��Sv/h),����,����(m/s),���J
2023/01/25,00:00,0.156,0.140,0.217,0.212,0.212,0.123,0.079,�k��,6.0,��
2023/01/25,00:10,0.155,0.140,0.217,0.212,0.212,0.123,0.078,�k��,6.5,��
2023/01/25,00:20,0.156,0.140,0.217,0.213,0.213,0.123,0.078,�k��,6.6,��
2023/01/25,00:30,0.157,0.140,0.217,0.212,0.212,0.123,0.078,�k��,6.8,��
2023/01/25,00:40,0.155,0.141,0.218,0.213,0.212,0.123,0.079,�k��,6.4,��
2023/01/25,00:50,0.155,0.141,0.216,0.213,0.213,0.123,0.078,�k��,6.2,��
2023/01/25,01:00,0.155,0.141,0.217,0.213,0.211,0.124,0.078,�k��,4.8,��
2023/01/25,01:10,0.155,0.141,0.217,0.212,0.212,0.123,0.079,�k��,6.2,��
2023/01/25,01:20,0.156,0.140,0.217,0.212,0.211,0.122,0.078,�k��,8.8,��
2023/01/25,01:30,0.156,0.140,0.217,0.211,0.213,0.122,0.078,�k�k��,9.2,��
2023/01/25,01:40,0.156,0.140,0.216,0.213,0.211,0.124,0.078,�k��,6.4,��
2023/01/25,01:50,0.156,0.141,0.216,0.212,0.212,0.123,0.078,�k��,4.9,��
2023/01/25,02:00,0.156,0.140,0.217,0.213,0.212,0.122,0.078,�k��,3.9,��
2023/01/25,02:10,0.156,0.142,0.218,0.211,0.212,0.122,0.077,�k��,4.5,��
2023/01/25,02:20,0.155,0.141,0.218,0.212,0.212,0.122,0.078,�k��,4.8,��
2023/01/25,02:30,0.155,0.140,0.217,0.213,0.212,0.123,0.078,�k��,6.0,��
2023/01/25,02:40,0.156,0.139,0.217,0.213,0.212,0.122,0.078,�k��,5.6,��
2023/01/25,02:50,0.155,0.140,0.216,0.213,0.212,0.122,0.077,�k��,3.6,��
2023/01/25,03:00,0.155,0.141,0.215,0.212,0.212,0.123,0.078,�k�k��,4.1,��
2023/01/25,03:10,0.155,0.140,0.216,0.212,0.211,0.123,0.078,�k�k��,6.0,��
2023/01/25,03:20,0.155,0.141,0.217,0.212,0.212,0.123,0.078,�k�k��,7.3,��
2023/01/25,03:30,0.155,0.140,0.215,0.212,0.211,0.123,0.078,�k�k��,8.2,��
2023/01/25,03:40,0.156,0.140,0.216,0.213,0.212,0.122,0.078,�k�k��,8.5,��
2023/01/25,03:50,0.155,0.139,0.217,0.212,0.210,0.122,0.079,�k�k��,6.3,��
2023/01/25,04:00,0.155,0.140,0.216,0.213,0.211,0.122,0.077,�k�k��,6.4,��
2023/01/25,04:10,0.155,0.139,0.217,0.211,0.212,0.123,0.078,�k��,6.8,��
2023/01/25,04:20,0.155,0.140,0.217,0.213,0.212,0.124,0.079,�k�k��,4.2,��
2023/01/25,04:30,0.155,0.140,0.216,0.212,0.212,0.123,0.078,�k��,4.2,��
2023/01/25,04:40,0.155,0.140,0.216,0.212,0.212,0.123,0.078,�k��,3.2,��
2023/01/25,04:50,0.155,0.141,0.217,0.213,0.212,0.123,0.078,�k��,2.5,��
2023/01/25,05:00,0.155,0.140,0.216,0.212,0.212,0.122,0.077,���k��,1.7,��
2023/01/25,05:10,0.155,0.140,0.216,0.213,0.212,0.122,0.078,���k��,1.5,��
2023/01/25,05:20,0.155,0.140,0.217,0.211,0.210,0.122,0.077,���k��,2.6,��
2023/01/25,05:30,0.154,0.140,0.217,0.212,0.211,0.121,0.077,�k��,2.1,��
2023/01/25,05:40,0.154,0.141,0.216,0.211,0.211,0.122,0.077,�k��,2.9,��
2023/01/25,05:50,0.155,0.141,0.218,0.213,0.211,0.122,0.078,�k��,3.1,��
2023/01/25,06:00,0.154,0.140,0.215,0.212,0.211,0.122,0.078,�k��,3.5,��
2023/01/25,06:10,0.154,0.140,0.217,0.212,0.212,0.122,0.078,���k��,1.9,��
2023/01/25,06:20,0.155,0.140,0.216,0.213,0.211,0.122,0.078,�k��,1.0,��
2023/01/25,06:30,0.154,0.140,0.215,0.212,0.212,0.122,0.078,���k��,0.6,��
2023/01/25,06:40,0.155,0.139,0.216,0.212,0.211,0.122,0.077,��,0.7,�L
2023/01/25,06:50,0.155,0.140,0.218,0.213,0.211,0.123,0.079,-,CALM,�L
2023/01/25,07:00,0.154,0.140,0.216,0.211,0.211,0.122,0.078,-,CALM,�L
2023/01/25,07:10,0.154,0.139,0.216,0.212,0.212,0.123,0.078,�k�k��,1.3,�L
2023/01/25,07:20,0.155,0.141,0.216,0.213,0.213,0.123,0.078,�k�k��,0.9,�L
2023/01/25,07:30,0.156,0.140,0.218,0.213,0.213,0.125,0.079,-,CALM,�L
2023/01/25,07:40,0.157,0.143,0.219,0.213,0.214,0.125,0.080,�k��,1.2,�L
2023/01/25,07:50,0.158,0.143,0.218,0.216,0.213,0.126,0.081,�k��,1.2,�L
2023/01/25,08:00,0.159,0.144,0.219,0.215,0.214,0.126,0.082,���k��,1.6,�L
2023/01/25,08:10,0.158,0.144,0.219,0.214,0.216,0.127,0.082,���k��,2.8,�L
2023/01/25,08:20,0.159,0.143,0.218,0.216,0.214,0.127,0.083,���k��,2.0,�L
2023/01/25,08:30,0.159,0.143,0.219,0.215,0.214,0.127,0.082,�k��,0.6,�L
2023/01/25,08:40,0.158,0.143,0.218,0.215,0.214,0.125,0.082,��,1.9,�L
2023/01/25,08:50,0.157,0.142,0.218,0.213,0.213,0.125,0.080,�k��,2.7,�L
2023/01/25,09:00,0.156,0.142,0.216,0.212,0.213,0.123,0.080,���k��,1.8,�L
2023/01/25,09:10,0.157,0.141,0.216,0.211,0.211,0.124,0.080,���k��,4.8,�L
2023/01/25,09:20,0.156,0.140,0.215,0.212,0.211,0.123,0.079,���k��,7.0,�L
2023/01/25,09:30,0.156,0.141,0.215,0.211,0.211,0.123,0.079,���k��,6.2,�L
2023/01/25,09:40,0.154,0.141,0.215,0.211,0.211,0.123,0.078,���k��,7.3,�L
2023/01/25,09:50,0.155,0.139,0.215,0.210,0.211,0.123,0.078,���k��,8.4,�L
2023/01/25,10:00,0.155,0.139,0.214,0.211,0.211,0.122,0.078,���k��,6.8,�L
2023/01/25,10:10,0.154,0.139,0.215,0.210,0.210,0.122,0.078,���k��,8.8,�L
2023/01/25,10:20,0.154,0.139,0.214,0.210,0.209,0.121,0.078,���k��,7.5,��
2023/01/25,10:30,0.154,0.140,0.215,0.210,0.210,0.121,0.078,���k��,7.6,��
2023/01/25,10:40,0.154,0.139,0.213,0.209,0.210,0.121,0.078,���k��,7.9,��
2023/01/25,10:50,0.153,0.139,0.213,0.211,0.210,0.122,0.078,��,8.7,��
2023/01/25,11:00,0.154,0.139,0.214,0.210,0.209,0.121,0.077,��,10.6,�L
2023/01/25,11:10,0.154,0.138,0.214,0.210,0.210,0.122,0.079,���k��,7.0,�L
2023/01/25,11:20,0.154,0.139,0.213,0.211,0.210,0.122,0.078,���k��,7.9,�L
2023/01/25,11:30,0.155,0.139,0.214,0.209,0.210,0.121,0.077,���k��,9.2,�L
2023/01/25,11:40,0.153,0.139,0.213,0.210,0.210,0.122,0.078,���k��,8.1,�L
2023/01/25,11:50,0.153,0.138,0.215,0.212,0.210,0.122,0.077,���k��,5.8,��
2023/01/25,12:00,0.154,0.139,0.214,0.210,0.210,0.122,0.077,���k��,5.6,��
2023/01/25,12:10,0.155,0.138,0.213,0.210,0.211,0.121,0.077,���k��,7.1,��
2023/01/25,12:20,0.154,0.139,0.214,0.210,0.210,0.122,0.078,��,10.6,��
2023/01/25,12:30,0.154,0.138,0.214,0.211,0.210,0.122,0.078,��,10.1,��
2023/01/25,12:40,0.153,0.138,0.215,0.210,0.210,0.122,0.078,��,9.0,��
2023/01/25,12:50,0.153,0.139,0.215,0.211,0.210,0.122,0.077,���k��,10.9,�L
2023/01/25,13:00,0.153,0.140,0.214,0.211,0.210,0.122,0.077,��,11.7,��
2023/01/25,13:10,0.154,0.139,0.214,0.211,0.211,0.122,0.077,��,9.5,��
2023/01/25,13:20,0.154,0.138,0.215,0.211,0.211,0.123,0.078,��,12.9,��
2023/01/25,13:30,0.154,0.139,0.214,0.211,0.212,0.122,0.078,���k��,12.0,�L
2023/01/25,13:40,0.153,0.140,0.216,0.210,0.212,0.122,0.077,���k��,13.7,��
2023/01/25,13:50,0.154,0.139,0.215,0.212,0.211,0.122,0.078,��,13.3,��
2023/01/25,14:00,0.153,0.140,0.216,0.210,0.212,0.122,0.078,��,15.5,��
2023/01/25,14:10,0.154,0.139,0.215,0.211,0.211,0.123,0.077,���k��,10.4,��
2023/01/25,14:20,0.154,0.140,0.215,0.210,0.213,0.122,0.078,���k��,8.9,��
2023/01/25,14:30,0.154,0.139,0.214,0.211,0.212,0.121,0.078,��,9.2,��
2023/01/25,14:40,0.155,0.140,0.216,0.211,0.211,0.122,0.078,���k��,9.2,��
2023/01/25,14:50,0.155,0.139,0.216,0.213,0.211,0.122,0.078,��,9.0,��
2023/01/25,15:00,0.155,0.140,0.216,0.212,0.211,0.122,0.077,���쐼,11.2,��
2023/01/25,15:10,0.155,0.140,0.216,0.211,0.212,0.122,0.078,��,11.7,��
2023/01/25,15:20,0.155,0.140,0.215,0.211,0.212,0.122,0.078,-,CALM,��
2023/01/25,15:30,0.155,0.139,0.215,0.212,0.212,0.122,0.078,���k��,9.2,��
2023/01/25,15:40,0.155,0.139,0.217,0.211,0.212,0.122,0.077,���k��,10.7,��
2023/01/25,15:50,0.155,0.140,0.215,0.211,0.211,0.122,0.078,���k��,14.0,��
2023/01/25,16:00,0.154,0.140,0.215,0.213,0.211,0.122,0.078,���k��,13.1,��
2023/01/25,16:10,0.155,0.140,0.215,0.212,0.211,0.122,0.078,��,14.0,��
2023/01/25,16:20,0.154,0.140,0.215,0.211,0.211,0.122,0.077,��,11.5,��
2023/01/25,16:30,0.155,0.140,0.215,0.212,0.211,0.122,0.078,���k��,12.2,��
2023/01/25,16:40,0.155,0.140,0.216,0.212,0.211,0.123,0.078,��,13.9,�L
2023/01/25,16:50,0.155,0.141,0.216,0.212,0.211,0.123,0.078,��,11.7,��
2023/01/25,17:00,0.155,0.139,0.215,0.211,0.212,0.123,0.078,���k��,14.0,��
2023/01/25,17:10,0.154,0.141,0.216,0.210,0.210,0.122,0.078,���k��,17.1,��
2023/01/25,17:20,0.155,0.140,0.215,0.212,0.211,0.122,0.078,��,12.0,��
2023/01/25,17:30,0.154,0.139,0.215,0.212,0.211,0.123,0.078,���k��,12.8,��
2023/01/25,17:40,0.154,0.140,0.216,0.212,0.212,0.123,0.078,���k��,11.2,��
2023/01/25,17:50,0.155,0.140,0.214,0.212,0.211,0.123,0.077,���k��,13.4,��
2023/01/25,18:00,0.155,0.140,0.216,0.211,0.212,0.123,0.078,���k��,12.6,��
2023/01/25,18:10,0.154,0.139,0.215,0.210,0.210,0.122,0.078,��,12.6,��
2023/01/25,18:20,0.156,0.139,0.216,0.212,0.210,0.123,0.078,���k��,10.3,��
2023/01/25,18:30,0.154,0.140,0.216,0.213,0.211,0.122,0.077,���k��,10.0,��
2023/01/25,18:40,0.155,0.141,0.217,0.211,0.212,0.122,0.078,���k��,9.0,��
2023/01/25,18:50,0.156,0.141,0.217,0.212,0.211,0.123,0.078,���k��,7.9,��
2023/01/25,19:00,0.155,0.140,0.215,0.212,0.211,0.122,0.078,���k��,3.6,��
2023/01/25,19:10,0.155,0.141,0.215,0.211,0.212,0.122,0.078,���k��,3.7,��
2023/01/25,19:20,0.155,0.140,0.216,0.212,0.211,0.122,0.078,���k��,5.6,��
2023/01/25,19:30,0.154,0.139,0.215,0.212,0.210,0.122,0.078,��,3.5,��
2023/01/25,19:40,0.154,0.140,0.216,0.212,0.211,0.122,0.078,��,3.8,��
2023/01/25,19:50,0.154,0.139,0.215,0.212,0.211,0.122,0.078,��,4.3,��
2023/01/25,20:00,0.155,0.139,0.214,0.211,0.211,0.122,0.078,��,4.3,��
2023/01/25,20:10,0.154,0.139,0.215,0.211,0.211,0.121,0.078,���k��,4.0,��
2023/01/25,20:20,0.154,0.140,0.215,0.212,0.211,0.122,0.077,���k��,3.6,��
2023/01/25,20:30,0.155,0.140,0.216,0.212,0.211,0.122,0.078,��,2.7,��
2023/01/25,20:40,0.155,0.139,0.215,0.212,0.211,0.122,0.077,���k��,2.7,��
2023/01/25,20:50,0.153,0.140,0.214,0.211,0.212,0.122,0.079,��,3.2,��
2023/01/25,21:00,0.155,0.140,0.215,0.212,0.212,0.122,0.078,��,3.6,��
2023/01/25,21:10,0.154,0.140,0.214,0.211,0.211,0.122,0.078,��,4.2,��
2023/01/25,21:20,0.154,0.140,0.215,0.212,0.210,0.122,0.078,���k��,4.2,��
2023/01/25,21:30,0.154,0.139,0.215,0.213,0.211,0.122,0.078,���k��,4.6,��
2023/01/25,21:40,0.155,0.140,0.215,0.213,0.211,0.122,0.078,��,2.9,��
2023/01/25,21:50,0.155,0.139,0.215,0.212,0.211,0.122,0.077,��,4.5,��
2023/01/25,22:00,0.154,0.139,0.215,0.212,0.211,0.121,0.078,���k��,4.1,��
2023/01/25,22:10,0.154,0.139,0.214,0.213,0.211,0.122,0.077,�쐼,1.9,��
2023/01/25,22:20,0.154,0.140,0.215,0.213,0.212,0.122,0.078,��,4.3,��
2023/01/25,22:30,0.154,0.138,0.216,0.212,0.211,0.121,0.077,��,1.6,��
2023/01/25,22:40,0.154,0.139,0.215,0.211,0.211,0.121,0.078,��쐼,0.9,��
2023/01/25,22:50,0.155,0.139,0.215,0.211,0.210,0.122,0.077,�쐼,2.3,��
2023/01/25,23:00,0.154,0.139,0.216,0.212,0.210,0.122,0.078,���쐼,3.2,��
2023/01/25,23:10,0.155,0.140,0.214,0.211,0.211,0.122,0.078,��쐼,3.2,��
2023/01/25,23:20,0.153,0.139,0.215,0.211,0.211,0.122,0.078,���쐼,2.8,��
2023/01/25,23:30,0.155,0.140,0.214,0.211,0.210,0.122,0.078,��쐼,4.1,��
2023/01/25,23:40,0.154,0.140,0.215,0.212,0.211,0.122,0.077,��,4.6,��
2023/01/25,23:50,0.155,0.140,0.215,0.212,0.210,0.122,0.078,��,4.7,��
